• In Österreich
  • Länderverzeichnis
  • Für 7 Tage
  • Wassertemperatur
  • Satellitenkarten
  • Wetterkarte
  • News
  • Widgets
  • user-avatar
    Anmelden

    Stündliche Wetter Mayrhofen

    Heute, 25 Februar, Sonntag

    Zeit Temperatur Niederschläge Wind Luftdruck Luftfeuchtigkeit
    00:00 -12°C° 0 mm 1 m/S 610 mmHg 89%
    01:00 -15°C° 0 mm 2 m/S 609 mmHg 87%
    02:00 -15°C° 0 mm 2 m/S 609 mmHg 87%
    03:00 -14°C° 0 mm 1 m/S 609 mmHg 87%
    04:00 -14°C° 0 mm 1 m/S 609 mmHg 86%
    05:00 -15°C° 0 mm 1 m/S 609 mmHg 87%
    06:00 -16°C° 0 mm 1 m/S 609 mmHg 88%
    07:00 -18°C° 0 mm 2 m/S 608 mmHg 95%
    08:00 -17°C° 0 mm 2 m/S 609 mmHg 91%
    09:00 -15°C° 0 mm 2 m/S 610 mmHg 88%
    10:00 -14°C° 0 mm 2 m/S 610 mmHg 84%
    11:00 -13°C° 0 mm 2 m/S 610 mmHg 81%
    12:00 -12°C° 0 mm 2 m/S 610 mmHg 79%
    13:00 -12°C° 0 mm 2 m/S 611 mmHg 76%
    14:00 -12°C° 0 mm 2 m/S 610 mmHg 79%
    15:00 -13°C° 0 mm 2 m/S 610 mmHg 81%
    16:00 -14°C° 0 mm 3 m/S 610 mmHg 84%
    17:00 -15°C° 0,1 mm 2 m/S 609 mmHg 87%
    18:00 -17°C° 0,1 mm 2 m/S 609 mmHg 91%
    19:00 -20°C° 0,1 mm 2 m/S 608 mmHg 94%
    20:00 -21°C° 0 mm 2 m/S 608 mmHg 94%
    21:00 -20°C° 0 mm 1 m/S 608 mmHg 93%
    22:00 -21°C° 0 mm 1 m/S 607 mmHg 93%
    23:00 -21°C° 0 mm 1 m/S 607 mmHg 92%

    Morgen, 26 Februar, Montag

    Zeit Temperatur Niederschläge Wind Luftdruck Luftfeuchtigkeit
    00:00 -22°C° 0 mm 1 m/S 607 mmHg 91%
    01:00 -23°C° 0 mm 1 m/S 606 mmHg 90%
    02:00 -23°C° 0 mm 1 m/S 606 mmHg 89%
    03:00 -23°C° 0 mm 1 m/S 606 mmHg 89%
    04:00 -24°C° 0 mm 1 m/S 605 mmHg 88%
    05:00 -27°C° 0 mm 2 m/S 605 mmHg 88%
    06:00 -27°C° 0 mm 2 m/S 605 mmHg 89%
    07:00 -28°C° 0 mm 2 m/S 605 mmHg 89%
    08:00 -26°C° 0 mm 2 m/S 606 mmHg 86%
    09:00 -23°C° 0 mm 2 m/S 607 mmHg 84%
    10:00 -20°C° 0 mm 2 m/S 607 mmHg 82%
    11:00 -19°C° 0 mm 2 m/S 607 mmHg 80%
    12:00 -19°C° 0 mm 3 m/S 607 mmHg 79%
    13:00 -19°C° 0 mm 3 m/S 607 mmHg 78%
    14:00 -19°C° 0,1 mm 3 m/S 607 mmHg 80%
    15:00 -19°C° 0,1 mm 3 m/S 607 mmHg 82%
    16:00 -19°C° 0,1 mm 3 m/S 606 mmHg 83%
    17:00 -20°C° 0 mm 2 m/S 606 mmHg 86%
    18:00 -21°C° 0 mm 2 m/S 606 mmHg 90%
    19:00 -23°C° 0 mm 2 m/S 605 mmHg 93%
    20:00 -24°C° 0,1 mm 2 m/S 605 mmHg 93%
    21:00 -22°C° 0,1 mm 1 m/S 605 mmHg 93%
    22:00 -22°C° 0,1 mm 1 m/S 605 mmHg 93%
    23:00 -23°C° 0,1 mm 1 m/S 604 mmHg 93%

    übermorgen, 27 Februar, Dienstag

    Zeit Temperatur Niederschläge Wind Luftdruck Luftfeuchtigkeit
    00:00 -23°C° 0,1 mm 1 m/S 604 mmHg 92%
    01:00 -24°C° 0,1 mm 1 m/S 604 mmHg 92%
    02:00 -24°C° 0 mm 1 m/S 603 mmHg 92%
    03:00 -24°C° 0 mm 1 m/S 603 mmHg 91%
    04:00 -24°C° 0 mm 1 m/S 603 mmHg 91%
    05:00 -24°C° 0 mm 1 m/S 603 mmHg 91%
    06:00 -24°C° 0 mm 1 m/S 603 mmHg 91%
    07:00 -24°C° 0 mm 1 m/S 603 mmHg 91%
    08:00 -22°C° 0 mm 1 m/S 604 mmHg 88%
    09:00 -20°C° 0 mm 1 m/S 605 mmHg 85%
    10:00 -18°C° 0 mm 1 m/S 605 mmHg 83%
    11:00 -19°C° 0 mm 2 m/S 605 mmHg 81%
    12:00 -18°C° 0 mm 2 m/S 606 mmHg 79%
    13:00 -17°C° 0 mm 2 m/S 606 mmHg 77%
    14:00 -17°C° 0,1 mm 2 m/S 606 mmHg 78%
    15:00 -17°C° 0,1 mm 2 m/S 606 mmHg 80%
    16:00 -17°C° 0,1 mm 2 m/S 606 mmHg 82%
    17:00 -18°C° 0,1 mm 2 m/S 605 mmHg 86%
    18:00 -18°C° 0,1 mm 1 m/S 605 mmHg 90%
    19:00 -20°C° 0,1 mm 1 m/S 605 mmHg 94%
    20:00 -21°C° 0 mm 1 m/S 605 mmHg 93%
    21:00 -21°C° 0 mm 1 m/S 605 mmHg 93%
    22:00 -22°C° 0 mm 1 m/S 605 mmHg 93%
    23:00 -23°C° 0 mm 1 m/S 605 mmHg 91%

    28 Februar, Mittwoch

    Zeit Temperatur Niederschläge Wind Luftdruck Luftfeuchtigkeit
    00:00 -23°C° 0 mm 1 m/S 605 mmHg 90%
    01:00 -23°C° 0 mm 1 m/S 605 mmHg 88%
    02:00 -23°C° 0 mm 1 m/S 605 mmHg 87%
    03:00 -23°C° 0 mm 1 m/S 605 mmHg 86%
    04:00 -24°C° 0 mm 1 m/S 605 mmHg 85%
    05:00 -24°C° 0 mm 1 m/S 605 mmHg 85%
    06:00 -23°C° 0 mm 1 m/S 605 mmHg 84%
    07:00 -23°C° 0 mm 1 m/S 605 mmHg 83%
    08:00 -20°C° 0 mm 1 m/S 606 mmHg 77%
    09:00 -17°C° 0 mm 1 m/S 608 mmHg 71%
    10:00 -14°C° 0 mm 1 m/S 609 mmHg 64%
    11:00 -13°C° 0 mm 1 m/S 609 mmHg 64%
    12:00 -13°C° 0 mm 2 m/S 610 mmHg 63%
    13:00 -12°C° 0 mm 2 m/S 610 mmHg 62%
    14:00 -12°C° 0 mm 2 m/S 610 mmHg 65%
    15:00 -10°C° 0 mm 2 m/S 610 mmHg 67%
    16:00 -10°C° 0 mm 2 m/S 610 mmHg 70%
    17:00 -13°C° 0 mm 2 m/S 609 mmHg 76%
    18:00 -15°C° 0 mm 2 m/S 609 mmHg 82%
    19:00 -17°C° 0 mm 2 m/S 608 mmHg 88%
    20:00 -18°C° 0 mm 2 m/S 608 mmHg 87%
    21:00 -18°C° 0 mm 2 m/S 608 mmHg 87%
    22:00 -19°C° 0 mm 2 m/S 608 mmHg 86%
    23:00 -19°C° 0 mm 2 m/S 608 mmHg 84%

    1 März, Donnerstag

    Zeit Temperatur Niederschläge Wind Luftdruck Luftfeuchtigkeit
    00:00 -19°C° 0 mm 3 m/S 608 mmHg 82%
    01:00 -19°C° 0 mm 3 m/S 608 mmHg 80%
    02:00 -19°C° 0 mm 3 m/S 608 mmHg 80%
    03:00 -18°C° 0 mm 3 m/S 608 mmHg 80%
    04:00 -18°C° 0 mm 3 m/S 607 mmHg 80%
    05:00 -18°C° 0 mm 3 m/S 607 mmHg 80%
    06:00 -17°C° 0 mm 3 m/S 607 mmHg 80%
    07:00 -17°C° 0 mm 3 m/S 607 mmHg 80%
    08:00 -15°C° 0 mm 3 m/S 607 mmHg 79%
    09:00 -12°C° 0 mm 3 m/S 608 mmHg 78%
    10:00 -9°C° 0 mm 3 m/S 609 mmHg 77%
    11:00 -8°C° 0 mm 3 m/S 608 mmHg 79%
    12:00 -6°C° 0 mm 3 m/S 608 mmHg 81%
    13:00 -5°C° 0 mm 3 m/S 608 mmHg 83%
    14:00 -5°C° 0,1 mm 3 m/S 608 mmHg 85%
    15:00 -6°C° 0,1 mm 3 m/S 607 mmHg 86%
    16:00 -6°C° 0,1 mm 3 m/S 607 mmHg 88%
    17:00 -6°C° 0,1 mm 3 m/S 607 mmHg 89%
    18:00 -7°C° 0,1 mm 3 m/S 607 mmHg 91%
    19:00 -7°C° 0,1 mm 2 m/S 606 mmHg 92%
    20:00 -7°C° 0,1 mm 2 m/S 606 mmHg 92%
    21:00 -8°C° 0,1 mm 3 m/S 606 mmHg 91%
    22:00 -8°C° 0,1 mm 3 m/S 606 mmHg 91%
    23:00 -7°C° 0,1 mm 2 m/S 606 mmHg 90%

    2 März, Freitag

    Zeit Temperatur Niederschläge Wind Luftdruck Luftfeuchtigkeit
    00:00 -7°C° 0,1 mm 2 m/S 606 mmHg 90%
    01:00 -7°C° 0,1 mm 2 m/S 606 mmHg 89%
    02:00 -8°C° 0 mm 2 m/S 605 mmHg 89%
    03:00 -8°C° 0 mm 2 m/S 605 mmHg 89%
    04:00 -8°C° 0 mm 2 m/S 604 mmHg 88%
    05:00 -8°C° 0 mm 2 m/S 604 mmHg 87%
    06:00 -8°C° 0 mm 2 m/S 604 mmHg 87%
    07:00 -8°C° 0 mm 2 m/S 604 mmHg 86%
    08:00 -6°C° 0 mm 2 m/S 605 mmHg 86%
    09:00 -3°C° 0 mm 2 m/S 606 mmHg 85%
    10:00 +1°C° 0 mm 1 m/S 606 mmHg 85%
    11:00 +2°C° 0 mm 1 m/S 606 mmHg 87%
    12:00 +2°C° 0 mm 1 m/S 606 mmHg 89%
    13:00 +3°C° 0 mm 1 m/S 606 mmHg 91%
    14:00 +3°C° 0 mm 1 m/S 606 mmHg 91%
    15:00 +2°C° 0 mm 2 m/S 606 mmHg 91%
    16:00 +2°C° 0 mm 2 m/S 606 mmHg 91%
    17:00 -1°C° 0 mm 2 m/S 605 mmHg 91%
    18:00 -2°C° 0 mm 2 m/S 605 mmHg 91%
    19:00 -3°C° 0 mm 2 m/S 605 mmHg 91%
    20:00 -4°C° 0 mm 2 m/S 605 mmHg 91%
    21:00 -4°C° 0 mm 2 m/S 604 mmHg 90%
    22:00 -4°C° 0 mm 2 m/S 604 mmHg 90%
    23:00 -4°C° 0,1 mm 2 m/S 604 mmHg 90%
    Mehr zeigen